Change the Weather History Date:

Friday, February 22, 2013

  Actual Average Record
Temperature  
Mean Temperature 32 °F -  
Max Temperature 35 °F 42 °F 70 °F (1922)
Min Temperature 28 °F 23 °F -5 °F (1963)
Degree Days  
Heating Degree Days 34    
Moisture  
Dew Point 28 °F    
Average Humidity 90    
Maximum Humidity 100    
Minimum Humidity 75    
Precipitation  
Precipitation 0.11 in - - ()
Sea Level Pressure  
Sea Level Pressure 29.87 in    
Wind  
Wind Speed 15 mph (SSW)    
Max Wind Speed 24 mph    
Max Gust Speed 31 mph    
Visibility 6 miles    
Events Snow , Thunderstorm    
Averages and records for this station are not official NWS values.
T = Trace of Precipitation, MM = Missing Value Source: NWS Daily Summary

Daily Weather History Graph

Daily Weather History Graph

Search for Another Location

Airport or City:

Trip Planner

Search our weather history database for the weather conditions in past years. The results will help you decide how hot, cold, wet, or windy it might be!

Date:

Astronomy

Feb. 22, 2013 Rise Set
Actual Time 6:38 AM CST 5:37 PM CST
Civil Twilight 6:10 AM CST 6:05 PM CST
Nautical Twilight 5:38 AM CST 6:37 PM CST
Astronomical Twilight 5:07 AM CST 7:09 PM CST
Moon 2:48 PM CST (2/22) 4:24 AM CST (2/22)
Length of Visible Light 11h 54m
Length of Day
10h 59m
Waxing Gibbous, 90% of the Moon is Illuminated
Feb 22
Waxing Gibbous
Feb 25
Full
Mar 4
Last Quarter
Mar 11
New
Mar 19
First Quarter

Hourly Weather History & Observations

Time (CST) Temp. Windchill Dew Point Humidity Pressure Visibility Wind Dir Wind Speed Gust Speed Precip Events Conditions
12:15 AM 28.4 °F 14.7 °F 26.6 °F 93% 29.88 in 1.8 mi East 21.9 mph - N/A   Overcast
12:35 AM 28.4 °F 15.4 °F 26.6 °F 93% 29.88 in 1.8 mi East 19.6 mph - N/A   Overcast
12:55 AM 28.4 °F 15.8 °F 28.4 °F 100% 29.88 in 2.0 mi ESE 18.4 mph - N/A   Overcast
1:15 AM 28.4 °F 16.2 °F 28.4 °F 100% 29.87 in 1.8 mi ESE 17.3 mph - N/A Snow Light Snow
1:35 AM 28.4 °F 18.0 °F 28.4 °F 100% 29.87 in 3.0 mi ESE 12.7 mph 19.6 mph N/A Snow Light Snow
1:55 AM 30.2 °F 19.3 °F 28.4 °F 93% 29.87 in 2.0 mi ESE 15.0 mph 18.4 mph N/A   Overcast
2:15 AM 28.4 °F 17.5 °F 28.4 °F 100% 29.86 in 2.0 mi ESE 13.8 mph - N/A Thunderstorm Overcast
2:35 AM 28.4 °F 18.0 °F 28.4 °F 100% 29.85 in 2.0 mi ESE 12.7 mph - N/A   Overcast
2:55 AM 28.4 °F 19.1 °F 28.4 °F 100% 29.84 in 2.5 mi East 10.4 mph - N/A   Overcast
3:15 AM 28.4 °F 18.0 °F 28.4 °F 100% 29.83 in 1.5 mi ESE 12.7 mph - N/A Snow Light Snow
3:35 AM 28.4 °F 17.5 °F 28.4 °F 100% 29.82 in 1.8 mi East 13.8 mph - N/A Snow , Thunderstorm Light Thunderstorms and Snow
3:55 AM 28.4 °F 18.0 °F 28.4 °F 100% 29.82 in 2.5 mi ESE 12.7 mph - N/A   Overcast
4:15 AM 28.4 °F 19.1 °F 28.4 °F 100% 29.81 in 7.0 mi East 10.4 mph - N/A Thunderstorm Overcast
4:35 AM 28.4 °F 19.1 °F 28.4 °F 100% 29.82 in 4.0 mi East 10.4 mph - N/A   Overcast
4:55 AM 28.4 °F 19.1 °F 28.4 °F 100% 29.81 in 7.0 mi East 10.4 mph - N/A   Overcast
5:15 AM 28.4 °F 19.7 °F 28.4 °F 100% 29.81 in 5.0 mi East 9.2 mph - N/A   Overcast
5:35 AM 30.2 °F 21.9 °F 28.4 °F 93% 29.81 in 4.0 mi East 9.2 mph - N/A Snow Light Snow
5:55 AM 30.2 °F 21.3 °F 28.4 °F 93% 29.81 in 5.0 mi East 10.4 mph - N/A   Overcast
6:15 AM 30.2 °F 21.9 °F 28.4 °F 93% 29.80 in 5.0 mi ESE 9.2 mph - N/A   Overcast
6:35 AM 30.2 °F 22.6 °F 28.4 °F 93% 29.80 in 4.0 mi ESE 8.1 mph - N/A   Overcast
6:55 AM 30.2 °F 22.6 °F 30.2 °F 100% 29.79 in 4.0 mi East 8.1 mph - N/A   Overcast
7:15 AM 30.2 °F 21.9 °F 30.2 °F 100% 29.80 in 3.0 mi ESE 9.2 mph - N/A   Overcast
7:35 AM 30.2 °F 21.9 °F 30.2 °F 100% 29.80 in 2.5 mi ESE 9.2 mph - N/A   Overcast
7:55 AM 30.2 °F 23.4 °F 30.2 °F 100% 29.80 in 2.5 mi SE 6.9 mph - N/A   Overcast
8:15 AM 32.0 °F 27.5 °F 32.0 °F 100% 29.80 in 2.0 mi SSE 4.6 mph - N/A   Overcast
8:35 AM 33.8 °F 27.0 °F 33.8 °F 100% 29.81 in 2.0 mi South 8.1 mph - N/A   Overcast
8:55 AM 33.8 °F 27.0 °F 33.8 °F 100% 29.81 in 1.8 mi South 8.1 mph - N/A   Overcast
9:15 AM 33.8 °F 25.8 °F 33.8 °F 100% 29.82 in 1.5 mi SSW 10.4 mph - N/A   Overcast
9:35 AM 33.8 °F 25.8 °F 33.8 °F 100% 29.81 in 1.8 mi SSW 10.4 mph - N/A   Overcast
9:55 AM 33.8 °F 24.8 °F 33.8 °F 100% 29.82 in 1.8 mi SSW 12.7 mph - N/A   Overcast
10:15 AM 35.6 °F 28.0 °F 33.8 °F 93% 29.83 in 4.0 mi SW 10.4 mph - N/A   Overcast
10:35 AM 35.6 °F 28.0 °F 33.8 °F 93% 29.83 in 1.5 mi SW 10.4 mph - 0.01 in Snow Light Snow
10:55 AM 35.6 °F 26.6 °F 33.8 °F 93% 29.84 in 3.0 mi SW 13.8 mph - N/A   Overcast
11:15 AM 35.6 °F 26.2 °F 33.8 °F 93% 29.84 in 4.0 mi SW 15.0 mph 19.6 mph 0.02 in   Overcast
11:35 AM 35.6 °F 26.2 °F 33.8 °F 93% 29.85 in 5.0 mi WSW 15.0 mph - 0.02 in   Overcast
11:55 AM 35.6 °F 26.6 °F 33.8 °F 93% 29.84 in 5.0 mi WSW 13.8 mph - 0.04 in   Overcast
12:15 PM 35.6 °F 27.1 °F 33.8 °F 93% 29.84 in 5.0 mi WSW 12.7 mph - 0.01 in   Overcast
12:35 PM 35.6 °F 26.2 °F 33.8 °F 93% 29.84 in 7.0 mi WSW 15.0 mph - 0.02 in   Overcast
12:55 PM 35.6 °F 25.2 °F 33.8 °F 93% 29.84 in 7.0 mi WSW 18.4 mph - 0.04 in   Mostly Cloudy
1:15 PM 35.6 °F 24.8 °F 32.0 °F 87% 29.84 in 10.0 mi WSW 19.6 mph - 0.01 in   Mostly Cloudy
1:35 PM 35.6 °F 24.8 °F 30.2 °F 81% 29.84 in 10.0 mi WSW 19.6 mph - 0.02 in   Overcast
1:55 PM 35.6 °F 25.9 °F 30.2 °F 81% 29.85 in 10.0 mi WSW 16.1 mph 25.3 mph 0.02 in   Mostly Cloudy
2:15 PM 35.6 °F 25.5 °F 30.2 °F 81% 29.85 in 10.0 mi WSW 17.3 mph 26.5 mph N/A   Mostly Cloudy
2:35 PM 35.6 °F 24.0 °F 28.4 °F 75% 29.86 in 10.0 mi WSW 23.0 mph 28.8 mph N/A   Mostly Cloudy
2:55 PM 33.8 °F 21.3 °F 26.6 °F 75% 29.87 in 10.0 mi WSW 24.2 mph - N/A   Overcast
3:15 PM 33.8 °F 22.8 °F 28.4 °F 81% 29.88 in 10.0 mi West 18.4 mph 23.0 mph N/A   Overcast
3:35 PM 33.8 °F 23.2 °F 26.6 °F 75% 29.88 in 10.0 mi West 17.3 mph 23.0 mph N/A   Overcast
3:55 PM 33.8 °F 22.8 °F 26.6 °F 75% 29.89 in 10.0 mi West 18.4 mph 31.1 mph N/A   Overcast
4:15 PM 32.0 °F 20.1 °F 26.6 °F 80% 29.89 in 10.0 mi West 19.6 mph 28.8 mph N/A   Overcast
4:35 PM 32.0 °F 20.8 °F 24.8 °F 75% 29.90 in 10.0 mi West 17.3 mph - N/A   Overcast
4:55 PM 32.0 °F 20.5 °F 24.8 °F 75% 29.91 in 10.0 mi West 18.4 mph 25.3 mph N/A   Overcast
5:15 PM 30.2 °F 18.1 °F 24.8 °F 80% 29.91 in 10.0 mi WSW 18.4 mph - N/A   Overcast
5:35 PM 30.2 °F 18.1 °F 24.8 °F 80% 29.92 in 10.0 mi WSW 18.4 mph 24.2 mph N/A   Overcast
5:55 PM 30.2 °F 19.3 °F 24.8 °F 80% 29.93 in 10.0 mi WSW 15.0 mph 20.7 mph N/A   Overcast
6:15 PM 30.2 °F 19.3 °F 24.8 °F 80% 29.93 in 10.0 mi WSW 15.0 mph - N/A   Overcast
6:35 PM 30.2 °F 19.8 °F 24.8 °F 80% 29.94 in 10.0 mi SW 13.8 mph - N/A   Overcast
6:55 PM 30.2 °F 19.8 °F 24.8 °F 80% 29.94 in 10.0 mi WSW 13.8 mph - N/A   Overcast
7:15 PM 30.2 °F 19.3 °F 24.8 °F 80% 29.94 in 10.0 mi WSW 15.0 mph - N/A   Overcast
7:35 PM 30.2 °F 18.9 °F 24.8 °F 80% 29.95 in 10.0 mi WSW 16.1 mph - N/A   Overcast
7:55 PM 30.2 °F 18.1 °F 24.8 °F 80% 29.95 in 10.0 mi WSW 18.4 mph 21.9 mph N/A   Overcast
8:15 PM 30.2 °F 18.9 °F 24.8 °F 80% 29.95 in 10.0 mi WSW 16.1 mph - N/A   Overcast
8:35 PM 30.2 °F 19.3 °F 24.8 °F 80% 29.95 in 10.0 mi WSW 15.0 mph - N/A   Overcast
8:55 PM 28.4 °F 17.5 °F 24.8 °F 86% 29.95 in 10.0 mi WSW 13.8 mph - N/A   Overcast
9:15 PM 28.4 °F 17.0 °F 24.8 °F 86% 29.96 in 10.0 mi WSW 15.0 mph - N/A   Overcast
9:35 PM 28.4 °F 16.6 °F 24.8 °F 86% 29.96 in 10.0 mi WSW 16.1 mph - N/A   Overcast
9:55 PM 28.4 °F 18.0 °F 24.8 °F 86% 29.96 in 10.0 mi WSW 12.7 mph - N/A   Overcast
10:15 PM 28.4 °F 17.5 °F 24.8 °F 86% 29.95 in 10.0 mi WSW 13.8 mph 18.4 mph N/A   Overcast
10:35 PM 28.4 °F 17.0 °F 24.8 °F 86% 29.95 in 10.0 mi WSW 15.0 mph - N/A   Overcast
10:55 PM 28.4 °F 18.5 °F 24.8 °F 86% 29.96 in 10.0 mi WSW 11.5 mph - N/A   Overcast
11:15 PM 28.4 °F 18.0 °F 24.8 °F 86% 29.96 in 10.0 mi WSW 12.7 mph - N/A   Overcast
11:35 PM 28.4 °F 18.5 °F 24.8 °F 86% 29.96 in 10.0 mi WSW 11.5 mph - N/A   Overcast
11:55 PM 28.4 °F 18.5 °F 23.0 °F 80% 29.96 in 10.0 mi WSW 11.5 mph - N/A   Overcast